Flag for Germany Weather past 2 weeks in Schleswig, Schleswig-Holstein, Germany

Now
48 °F

Light rain. Low clouds.


Feels Like: 44 °F
Forecast: 42 / 48 °F
Wind: 8 mph from West

Location: Schleswig

Current Time: Dec 23, 2014 at 2:41:11 AM

Latest Report: Dec 23, 2014 at 2:00 AM


Visibility: 3 mi

Pressure: 29.69 "Hg

Humidity: 100%

Dew point: 48 °F

Location of SchleswigLocation

Historic Weather in Schleswig — Graph

°F

Schleswig temperature yesterday

Maximum temperature yesterday: 49 °F (at 11:00 AM)
Minimum temperature yesterday: 46 °F (at 12:00 AM)
Average temperature yesterday: 48 °F

Past Weeks' High & Low Weather Summary

 TemperatureHumidityPressure
High51 °F (Dec 18, 9:00 PM)100% (Dec 9, 1:00 AM)30.27 "Hg (Dec 9, 1:00 AM)
Low32 °F (Dec 14, 7:00 AM)75% (Dec 20, 4:00 PM)29.03 "Hg (Dec 12, 1:00 PM)
Average40 °F94%29.71 "Hg
* Reported Dec 8 1:00 AM — Dec 23 1:00 AM, Schleswig, Weather by CustomWeather, © 2014

Note: Actual official high and low records may vary slightly from our data, if they occured in-between our weather recording intervals... More about our weather records

Advertising

Schleswig weather history for previous 24 hours

 ConditionsComfort  
Time TempWeatherWind HumidityBarometerVisibility
1:00 AM
Dec 23
48 °FLight rain. Low clouds.6 mph100%29.69 "Hg2 mi
12:00 AM48 °FDrizzle. Low clouds.6 mph100%29.69 "Hg2 mi
11:00 PM
Dec 22
48 °FLight rain. Low clouds.7 mph100%29.68 "Hg2 mi
10:00 PM48 °FLight rain. Low clouds.8 mph100%29.68 "Hg1 mi
9:00 PM48 °FLight rain. Low clouds.9 mph100%29.68 "Hg2 mi
8:00 PM48 °FDrizzle. Low clouds.9 mph100%29.69 "Hg4 mi
7:00 PM48 °FDrizzle. Low clouds.12 mph100%29.67 "Hg2 mi
6:00 PM48 °FDrizzle. Low clouds.8 mph100%29.67 "Hg2 mi
5:00 PM47 °FLow clouds.8 mph100%29.67 "Hg7 mi
3:00 PM46 °FLight rain. Low clouds.7 mph99%29.64 "Hg16 mi
2:00 PM47 °FLight rain. Low clouds.7 mph100%29.64 "Hg2 mi
1:00 PM49 °FLight rain. Low clouds.12 mph99%29.62 "Hg3 mi
12:00 PM49 °FRain. Low clouds.13 mph100%29.61 "Hg2 mi
11:00 AM49 °FRain. Low clouds.13 mph99%29.60 "Hg2 mi
9:00 AM49 °FLight rain. Low clouds.10 mph99%29.62 "Hg4 mi
8:00 AM48 °FLight rain. Low clouds.12 mph100%29.63 "Hg4 mi
7:00 AM48 °FLight rain. Low clouds.10 mph100%29.65 "Hg2 mi
6:00 AM48 °FLight rain. Low clouds.10 mph100%29.67 "Hg2 mi
5:00 AM48 °FRain. Low clouds.12 mph100%29.67 "Hg2 mi
3:00 AM47 °FLight rain. Low clouds.12 mph99%29.70 "Hg0 mi
2:00 AM47 °FLight rain. Low clouds.12 mph100%29.71 "Hg2 mi
Weather by CustomWeather, © 2014

See weather overviewHow to use our weather pages